Temperature
18 18 19 19 16 14 16 18 19 21 21 22 22 21 18 18 19 19 18 18 17 16 16 15 15 14 14 14 14 13 13 13 12 12 12 11 11 11 11 11 11 11 11 11 11 11 11 12 12
18 18 19 18 15 15 16 18 19 20 22 22 22 21 19 18 19 19 18 17 17 17 16 15 15 15 14 14 14 13 13 12 12 12 11 11 11 11 11 11 11 11 11 11 11 11 12 12 12
18 18 18 15 15 15 18 19 19 21 23 23 21 21 20 20 20 20 19 18 17 17 16 15 15 15 14 14 14 13 13 12 12 12 11 11 11 11 11 11 11 11 11 11 11 11 12 12 12
18 18 18 15 16 17 18 19 19 20 22 23 21 19 20 20 20 20 19 18 17 17 16 15 15 14 14 14 14 13 13 12 12 11 11 11 11 11 11 11 11 11 11 11 11 11 11 11 11
18 18 16 15 17 18 18 20 21 20 21 22 21 19 19 20 20 20 20 19 18 17 16 16 15 14 14 14 13 13 13 12 11 11 11 11 11 11 11 11 11 11 11 11 11 11 11 11 11
17 15 14 15 17 18 19 21 21 20 21 21 21 18 19 20 20 20 20 19 18 18 16 16 15 14 14 14 13 13 12 12 11 11 11 11 11 11 11 11 11 11 11 11 11 11 11 11 11
17 14 15 16 17 18 20 22 21 20 20 21 22 18 18 19 19 19 19 19 18 17 17 16 15 15 14 14 13 13 13 12 12 11 11 11 11 11 11 11 11 11 11 11 11 10 10 10 10
18 14 16 16 17 19 21 22 22 22 21 22 22 19 18 19 18 18 18 18 17 17 16 16 15 15 14 14 13 13 12 12 12 11 11 11 11 11 11 11 11 11 10 10 10 10 10 10 10
18 14 15 17 18 19 20 21 22 23 22 22 21 22 22 20 18 17 17 16 16 16 16 16 15 15 14 14 13 13 12 12 12 12 11 11 11 10 10 10 10 10 10 10 10 9 9 9 9
17 14 16 18 19 19 20 21 21 22 21 21 21 21 21 20 19 18 18 18 17 17 17 16 16 15 15 14 13 13 12 12 12 12 11 11 11 10 10 10 10 10 10 10 9 9 9 9 9
16 15 17 18 20 20 20 21 21 21 20 20 21 21 20 20 19 19 19 19 19 19 17 17 16 15 15 14 14 13 12 12 12 11 11 11 10 10 10 10 9 9 9 9 9 9 9 9 9
16 16 18 19 20 20 20 20 20 20 21 22 22 22 21 20 19 19 19 19 19 18 18 17 16 15 15 14 14 13 13 12 12 11 11 11 10 10 10 10 9 9 9 9 9 9 9 8 8
16 17 19 19 20 20 20 20 20 20 21 21 21 21 20 20 20 20 19 19 18 18 18 17 16 16 15 14 14 13 13 12 12 11 11 10 10 10 10 9 9 9 9 9 9 9 9 9 8
17 17 18 19 19 20 19 19 19 20 21 21 21 20 20 20 20 19 19 18 18 18 18 17 16 16 15 15 14 14 13 12 12 11 11 10 10 10 10 9 9 9 9 9 9 9 9 9 9
18 17 17 17 18 19 18 17 17 21 21 20 20 20 20 20 20 20 20 19 19 18 18 17 16 16 15 15 14 13 13 12 12 11 11 10 10 10 10 10 9 9 9 9 9 9 9 9 9
17 16 15 16 17 17 17 16 16 20 20 19 20 20 20 20 20 20 20 20 19 18 18 17 16 16 15 14 14 13 13 12 12 11 11 11 10 10 10 10 9 9 9 9 9 9 9 9 9
15 14 14 15 16 16 16 15 16 20 19 19 20 20 20 20 20 20 20 20 20 19 18 17 16 16 15 14 14 13 13 12 12 11 11 11 10 10 10 10 9 9 9 9 9 9 9 9 9
13 13 15 15 16 15 15 15 15 19 18 18 19 20 20 20 21 21 20 20 20 19 18 18 17 16 15 14 13 12 12 12 11 11 11 11 10 10 10 10 10 9 9 9 9 9 9 9 9
15 15 15 16 16 16 15 15 16 17 16 16 18 19 20 20 21 21 21 20 20 19 18 18 17 16 15 14 13 12 12 12 11 11 11 11 10 10 10 10 10 9 9 9 9 9 9 9 9
14 14 15 15 16 16 15 14 15 15 15 17 18 19 20 20 21 21 21 20 20 19 19 18 17 16 15 15 14 13 12 12 11 11 11 10 10 10 10 10 10 9 9 9 9 9 9 9 9
14 14 14 15 16 16 15 14 15 15 16 17 18 19 19 20 20 20 20 20 20 19 19 18 17 17 16 15 14 12 12 11 11 11 11 10 10 10 10 10 10 9 9 9 9 9 9 9 8
14 15 15 15 14 13 15 13 14 14 15 16 17 18 19 20 20 20 20 20 19 19 19 18 17 17 16 15 14 13 12 12 11 11 11 10 10 10 10 10 9 9 9 9 9 9 9 8 8
14 15 15 15 14 13 13 13 13 14 15 16 16 18 19 19 19 20 20 19 19 19 18 18 17 16 15 14 14 13 12 12 12 11 11 10 10 10 10 10 9 9 9 9 9 9 9 8 8
15 15 14 12 12 12 12 12 12 13 15 16 16 17 19 19 19 19 19 19 18 18 17 17 16 16 15 14 14 13 13 12 11 11 11 10 10 10 10 9 9 9 9 9 9 9 8 8 8
14 13 12 12 11 11 12 12 13 14 15 15 16 17 18 18 18 18 18 18 18 17 17 16 16 15 15 14 13 13 12 12 11 11 11 10 10 10 10 9 9 9 9 9 9 8 8 8 8
13 14 12 12 11 11 12 12 13 15 15 16 17 18 18 18 18 18 18 18 17 17 16 16 15 15 14 14 13 13 12 11 11 11 11 10 10 10 10 9 9 9 9 9 9 8 8 8 7
13 13 13 12 11 12 11 12 13 15 15 14 15 16 17 18 18 18 17 17 17 16 16 15 15 14 14 13 13 12 12 11 11 10 10 10 10 10 9 9 9 9 9 9 8 8 8 7 7
13 13 12 11 11 11 12 12 13 15 14 14 13 14 17 17 17 17 17 17 16 16 15 15 14 14 14 13 13 12 12 11 11 10 10 10 10 10 9 9 9 9 9 8 8 8 7 7 7
12 13 12 11 10 11 11 12 14 15 14 14 13 15 17 18 18 17 17 16 16 15 15 15 14 14 13 13 12 12 11 11 10 10 10 10 10 9 9 9 9 9 8 8 8 7 7 7 6
13 12 12 12 10 10 10 12 14 14 14 14 14 16 17 18 18 17 17 16 16 15 15 14 14 14 13 13 12 12 11 10 10 10 9 9 9 9 9 9 8 8 8 8 7 7 7 6 6
Wind_Speed
7 5 3 4 5 4 3 6 5 3 3 2 6 11 11 7 4 4 4 12 14 14 18 20 20 19 18 18 17 17 16 15 14 14 14 14 14 14 14 14 14 14 14 14 15 15 15 15 14
3 3 4 5 5 2 5 5 5 6 7 7 8 8 8 4 3 8 7 12 18 18 18 19 21 20 19 18 18 17 16 15 14 14 13 13 13 13 13 13 14 14 14 14 14 14 14 14 13
3 2 4 4 4 6 5 5 7 5 5 5 6 6 8 8 7 9 10 17 17 16 18 20 21 21 19 19 18 17 16 15 14 14 13 13 13 13 13 13 13 13 13 13 13 13 13 12 12
4 4 5 3 5 7 6 5 6 7 3 5 7 7 4 4 9 9 16 17 16 13 18 21 22 21 20 19 19 18 17 16 15 14 13 12 12 12 12 12 12 12 12 12 11 11 11 11 10
4 4 3 1 6 5 6 7 6 7 7 5 7 7 2 3 5 15 19 19 18 13 18 21 22 21 21 20 19 18 17 16 15 14 13 12 12 12 11 11 11 10 10 10 10 10 9 9 9
4 4 3 3 6 5 5 7 7 6 5 6 8 8 2 1 11 16 17 17 17 16 18 20 22 22 21 20 19 18 17 16 15 14 13 13 12 11 11 10 9 9 8 8 8 8 7 7 7
4 4 4 4 4 5 6 6 8 8 6 8 10 8 3 4 9 12 13 14 14 16 16 17 20 21 21 20 19 18 17 17 15 14 13 12 12 11 10 9 8 7 6 6 6 5 5 5 6
5 4 2 3 5 6 5 5 6 9 6 6 8 11 8 10 9 10 11 11 12 11 12 13 16 18 19 19 20 19 18 17 16 14 13 12 11 10 9 8 7 6 5 4 3 4 4 4 4
4 3 3 4 5 5 3 3 2 4 7 5 4 8 8 15 14 13 10 9 11 13 11 12 13 16 17 18 19 19 18 17 16 15 14 12 10 9 8 7 7 5 4 2 1 1 2 3 4
4 4 6 4 3 3 2 1 2 4 5 3 4 4 9 16 18 18 16 17 17 17 15 12 12 15 17 17 17 17 17 16 15 15 14 12 11 10 9 9 7 6 4 2 2 2 3 4 5
6 7 6 5 4 2 2 2 1 6 4 6 8 9 14 15 17 18 19 20 20 19 18 16 14 16 16 13 15 14 14 15 15 15 15 13 11 9 9 8 7 5 4 3 3 3 4 4 4
5 7 6 5 3 2 2 1 2 3 6 6 10 15 17 18 20 20 20 18 15 17 18 17 15 15 15 15 14 13 12 13 13 15 15 13 9 8 8 8 7 6 5 3 2 2 3 3 2
7 7 7 6 5 4 3 3 3 5 6 3 7 13 17 19 19 17 16 14 13 17 18 18 17 16 15 13 12 13 13 14 15 15 16 15 10 7 8 7 6 6 5 4 2 1 1 2 3
7 7 7 6 6 4 5 6 3 9 5 2 8 13 16 18 18 14 12 14 16 18 19 18 19 17 16 13 10 11 14 15 16 15 16 16 13 10 8 6 6 6 6 4 3 2 1 1 2
5 4 5 6 6 6 4 8 9 11 5 6 8 12 14 16 16 17 18 18 19 19 19 19 20 18 17 15 13 13 15 16 14 15 17 17 15 13 10 6 5 6 6 5 3 2 2 2 2
2 3 5 7 6 6 7 12 13 10 7 10 10 11 12 15 15 17 18 17 17 17 18 20 18 18 18 15 13 12 15 15 14 16 16 17 16 15 11 6 5 7 6 4 2 1 1 2 2
2 5 7 7 6 7 9 11 11 7 8 10 11 11 11 12 14 15 16 17 18 19 19 20 18 20 19 16 12 12 13 13 14 15 15 16 17 16 12 7 7 8 5 3 2 2 1 0 1
8 7 6 8 5 7 9 12 12 8 8 11 11 11 11 12 15 14 15 16 16 17 19 20 19 18 16 13 9 8 9 9 12 13 14 16 16 16 13 8 8 8 4 3 2 2 2 1 1
7 7 7 7 5 7 10 13 15 12 9 12 12 11 12 14 13 11 11 12 13 14 16 19 18 17 15 13 12 11 10 9 8 9 15 16 16 15 13 7 7 6 4 5 4 3 2 1 1
8 8 7 5 3 6 9 13 13 11 10 12 13 13 13 11 9 8 9 10 13 16 17 18 19 18 18 15 12 9 8 6 7 7 11 16 16 15 13 9 6 6 5 5 4 3 3 1 2
12 11 10 6 3 3 4 9 9 8 7 8 9 10 10 12 12 9 9 10 11 14 17 18 18 17 16 13 9 7 5 4 5 7 8 10 15 15 14 12 9 7 6 6 5 5 5 3 0
14 11 10 8 4 5 2 6 9 7 8 8 9 9 10 9 9 8 9 10 11 12 13 14 15 15 14 14 14 14 10 8 8 7 7 8 13 14 14 13 11 8 6 6 6 5 4 5 3
9 8 9 7 6 5 4 5 9 6 8 11 10 10 9 9 9 9 10 10 9 9 10 11 13 13 13 15 16 15 10 7 5 6 8 8 8 11 13 13 11 8 6 7 7 5 5 4 4
8 5 3 2 3 7 9 8 8 7 10 9 9 10 9 8 7 7 6 6 6 7 8 10 12 12 13 15 15 15 13 11 10 9 10 8 6 6 9 11 10 9 7 7 7 6 7 5 4
10 8 4 3 4 8 7 7 10 11 11 12 12 11 9 8 8 7 8 8 8 8 9 10 12 12 13 14 14 14 14 14 14 12 11 9 7 6 9 8 8 7 8 8 7 6 6 6 5
13 14 10 9 7 5 5 10 9 10 9 8 8 8 7 8 8 9 9 9 9 10 10 10 12 11 12 13 13 12 12 11 10 11 10 11 9 8 9 9 8 9 9 9 7 5 5 5 6
12 12 9 6 4 3 6 7 8 3 4 6 7 8 9 9 9 9 8 9 9 10 10 11 11 10 11 12 11 11 12 11 10 10 9 8 8 7 9 9 9 8 9 8 7 5 6 5 5
12 11 7 7 8 6 6 6 6 8 9 9 9 10 10 9 8 8 8 9 8 9 8 8 9 10 10 10 10 9 10 10 10 9 10 9 9 9 10 10 9 9 8 7 7 5 5 6 5
9 10 8 8 6 7 6 8 8 12 13 13 12 11 11 11 10 9 8 8 8 7 8 8 8 8 8 9 9 9 9 9 9 9 10 10 9 10 11 10 9 9 8 8 7 7 6 7 6
10 12 11 11 8 7 5 8 7 9 11 12 12 11 10 10 9 8 8 7 7 8 8 9 9 9 9 9 9 9 8 8 9 9 9 9 10 10 10 10 9 9 8 8 8 8 7 7 7
Wind_Direction
323 349 74 61 61 60 243 243 207 178 133 126 104 103 110 115 143 159 139 141 140 148 157 154 151 147 143 138 133 129 125 119 115 111 107 105 101 98 94 91 87 84 81 79 77 76 74 74 74
350 25 63 65 97 161 258 239 190 187 167 140 102 96 95 97 118 126 132 152 146 150 153 153 152 148 145 142 138 134 129 125 122 118 113 109 105 102 98 95 92 89 85 82 80 78 76 76 74
352 64 87 84 145 191 226 216 180 173 169 127 91 87 128 151 154 162 162 150 145 149 153 156 154 152 149 145 142 138 134 130 127 123 118 114 110 106 102 99 95 92 89 86 83 80 78 76 73
51 48 60 93 228 228 210 213 171 140 132 90 106 91 123 163 172 166 147 146 145 149 154 159 157 155 153 149 146 143 140 137 134 130 126 121 116 111 107 103 100 96 92 89 85 81 78 74 70
64 77 74 273 251 251 214 208 182 148 152 127 113 118 127 343 144 140 147 149 150 151 156 161 159 157 155 153 150 148 146 143 141 138 133 128 122 118 114 109 105 100 95 90 86 81 76 70 65
60 76 116 233 252 265 240 198 162 155 156 134 120 126 153 89 139 150 153 153 154 155 158 163 162 160 158 156 155 154 152 149 146 144 140 135 131 127 123 117 112 106 98 91 85 78 70 62 55
124 120 192 221 250 261 236 195 161 160 163 171 140 126 154 178 165 151 149 147 151 156 159 163 164 163 162 161 160 159 157 154 152 150 147 143 140 137 132 128 123 116 104 94 83 75 63 51 41
146 121 238 238 229 247 230 177 168 154 174 154 131 145 185 196 163 136 133 140 150 157 161 162 163 164 164 164 164 163 162 160 158 156 153 152 151 147 144 141 138 129 116 103 84 67 49 33 15
119 102 231 234 224 246 257 155 139 145 122 106 134 178 188 151 141 135 137 146 159 167 170 167 164 164 164 165 168 166 166 166 164 162 160 158 156 158 157 162 161 157 153 145 108 34 11 353 340
124 176 225 231 229 241 303 86 144 103 103 98 68 59 124 145 155 160 167 171 174 178 179 175 171 167 167 170 170 169 169 170 168 168 168 168 171 175 179 186 186 186 192 221 270 302 326 331 328
175 200 229 266 275 268 314 349 31 129 166 184 175 162 150 162 169 175 180 182 183 180 179 180 177 173 172 172 170 171 171 171 173 175 177 178 182 190 192 194 200 206 218 247 287 314 321 325 324
210 236 223 246 258 242 236 296 357 177 201 191 179 164 165 174 183 186 187 188 181 179 184 181 179 177 178 175 175 175 174 176 180 184 185 180 180 184 187 193 202 206 212 226 258 289 305 330 350
230 251 249 239 235 219 209 225 237 257 249 209 161 164 179 187 193 197 193 185 179 184 186 183 181 180 180 177 179 181 181 184 186 189 189 185 181 183 186 192 195 202 206 206 208 255 340 1 6
222 229 252 249 233 221 220 250 235 251 253 207 173 184 194 197 199 197 193 190 190 189 188 184 184 183 180 182 183 184 186 186 187 189 191 190 187 182 178 179 187 197 197 191 179 169 102 16 8
204 221 276 253 223 224 201 266 243 244 256 254 223 207 206 210 206 203 201 198 196 193 188 186 186 184 183 185 185 185 186 185 188 191 192 190 188 182 177 173 183 194 187 176 156 117 76 48 29
167 192 244 261 215 201 170 250 257 252 239 247 243 226 217 219 214 213 209 205 199 193 188 188 186 185 186 186 184 183 184 184 187 189 190 189 187 183 174 172 186 189 173 158 136 109 79 30 13
204 209 226 264 225 189 186 239 259 246 219 239 244 237 227 227 227 222 215 208 201 195 189 187 185 185 186 184 180 179 180 183 186 186 186 188 186 182 174 177 185 175 157 152 143 114 120 68 341
203 206 222 229 235 183 206 239 258 258 228 238 243 242 237 233 232 222 213 208 201 195 189 186 185 183 181 177 171 171 175 183 184 184 186 185 185 182 176 176 177 166 149 147 138 130 105 105 324
187 194 223 240 230 190 224 243 254 257 248 247 246 242 240 240 240 228 210 199 192 187 186 185 183 180 176 178 179 180 185 185 185 185 186 185 182 180 175 172 168 164 162 167 159 138 117 63 41
215 226 237 267 249 209 240 254 256 253 242 237 236 235 235 239 247 230 206 188 187 186 185 184 183 181 182 185 183 181 172 176 182 180 185 186 182 179 179 170 168 166 159 159 159 144 133 100 77
217 216 222 229 288 304 281 285 271 267 249 248 237 229 227 225 226 219 199 192 185 186 185 185 185 182 182 173 161 144 135 136 167 185 188 188 184 181 178 175 169 168 165 171 173 161 152 159 124
221 212 205 210 216 262 218 276 275 261 270 256 244 234 227 223 214 206 196 190 188 190 184 181 180 178 176 169 172 172 178 182 186 180 182 181 182 180 180 177 173 170 168 171 175 167 158 150 166
204 189 192 199 196 250 245 239 274 266 254 250 239 232 227 219 204 199 196 190 183 177 175 176 174 175 174 175 177 180 182 177 158 161 171 178 180 180 179 177 173 171 173 175 170 162 162 161 166
168 131 121 84 138 241 222 207 267 232 226 236 231 228 223 209 195 189 180 164 161 162 165 167 170 175 175 177 178 182 178 168 164 172 180 181 179 181 181 177 176 175 174 176 175 171 169 171 169
163 147 164 200 214 239 203 204 247 237 230 219 217 219 215 200 181 176 170 168 166 165 167 168 170 175 177 178 181 184 180 177 180 180 184 181 182 189 190 179 179 177 179 177 171 171 176 176 179
185 172 179 191 204 242 198 221 247 247 237 224 211 203 194 191 187 186 186 179 175 173 170 170 174 175 177 181 183 181 179 182 186 184 184 188 193 193 184 180 181 179 177 176 173 173 183 181 190
173 191 170 147 176 209 243 261 291 247 210 200 195 185 192 197 195 193 189 183 180 179 179 177 176 176 180 181 179 180 181 181 183 183 183 188 188 183 179 179 179 181 179 177 172 184 190 185 196
173 161 148 164 175 216 254 245 231 216 210 207 203 200 205 202 198 195 191 189 187 183 179 177 177 180 180 179 181 183 183 183 179 180 186 187 185 179 177 181 182 181 182 180 178 186 190 191 203
163 171 165 166 178 179 223 251 219 210 204 202 208 207 201 198 198 197 195 191 184 178 176 179 181 177 178 180 180 179 181 180 178 185 190 188 184 180 182 184 183 183 185 183 184 194 192 200 211
173 178 165 182 201 187 192 256 252 222 205 196 203 205 201 197 194 191 187 181 181 183 183 184 184 183 182 179 177 179 178 176 181 188 188 183 183 183 183 180 182 186 188 187 191 199 200 205 214
Height
1519 1519 1520 1522 1526 1536 1535 1525 1517 1514 1512 1512 1511 1512 1517 1522 1527 1532 1530 1529 1532 1534 1536 1539 1541 1543 1544 1546 1546 1547 1547 1547 1548 1548 1548 1548 1548 1548 1548 1548 1548 1547 1547 1547 1547 1546 1546 1545 1545
1518 1519 1521 1522 1531 1541 1534 1520 1515 1511 1510 1511 1512 1514 1517 1521 1523 1525 1526 1529 1532 1534 1536 1538 1541 1543 1544 1545 1546 1547 1547 1548 1548 1548 1549 1549 1549 1549 1548 1548 1548 1548 1548 1547 1547 1547 1547 1547 1546
1518 1519 1521 1523 1531 1535 1525 1515 1511 1509 1509 1509 1512 1515 1518 1521 1522 1524 1526 1528 1531 1534 1536 1538 1540 1542 1544 1545 1546 1547 1547 1548 1548 1549 1549 1549 1549 1549 1549 1549 1549 1549 1549 1548 1548 1548 1548 1548 1548
1518 1520 1521 1527 1527 1521 1515 1511 1508 1508 1509 1509 1512 1517 1519 1522 1523 1524 1526 1528 1531 1533 1536 1538 1540 1542 1543 1545 1546 1546 1547 1548 1548 1549 1549 1549 1549 1549 1549 1550 1550 1550 1550 1550 1550 1549 1549 1549 1549
1518 1519 1524 1528 1523 1514 1509 1507 1507 1507 1508 1509 1511 1516 1519 1521 1523 1524 1526 1528 1530 1533 1535 1537 1539 1541 1543 1544 1545 1546 1547 1547 1548 1549 1549 1549 1549 1550 1550 1550 1550 1551 1551 1551 1551 1550 1550 1550 1550
1518 1519 1529 1530 1520 1511 1507 1505 1506 1506 1507 1509 1511 1515 1518 1521 1522 1524 1525 1527 1530 1532 1534 1537 1539 1541 1542 1543 1545 1546 1547 1547 1548 1548 1549 1549 1550 1550 1550 1551 1551 1551 1551 1551 1551 1551 1551 1551 1550
1518 1521 1525 1522 1518 1512 1506 1503 1503 1504 1506 1508 1509 1514 1517 1520 1522 1524 1526 1528 1530 1532 1534 1536 1538 1540 1541 1543 1544 1545 1546 1547 1548 1548 1549 1549 1550 1550 1551 1551 1552 1552 1552 1552 1552 1552 1551 1551 1551
1515 1519 1520 1519 1516 1510 1502 1502 1501 1502 1504 1507 1509 1511 1514 1517 1521 1524 1526 1528 1530 1532 1533 1535 1537 1538 1540 1542 1543 1544 1545 1546 1547 1548 1549 1549 1550 1551 1551 1552 1552 1552 1552 1552 1552 1552 1552 1551 1551
1513 1520 1522 1515 1511 1506 1501 1500 1501 1501 1503 1505 1507 1508 1510 1514 1518 1522 1525 1527 1528 1530 1532 1534 1535 1537 1539 1540 1542 1543 1544 1546 1547 1547 1548 1549 1550 1551 1551 1552 1552 1552 1552 1552 1552 1552 1552 1551 1551
1511 1519 1514 1506 1504 1502 1500 1499 1500 1501 1502 1504 1506 1507 1509 1512 1514 1517 1519 1521 1524 1526 1529 1531 1533 1535 1537 1539 1540 1542 1543 1544 1545 1547 1548 1549 1549 1550 1551 1551 1552 1552 1552 1552 1552 1552 1551 1551 1551
1507 1510 1506 1503 1502 1501 1500 1499 1499 1500 1502 1502 1503 1505 1507 1510 1512 1514 1515 1517 1519 1522 1525 1528 1530 1533 1535 1536 1538 1540 1541 1543 1544 1546 1547 1548 1549 1550 1550 1551 1551 1552 1552 1552 1552 1551 1551 1551 1550
1505 1502 1502 1501 1500 1500 1500 1499 1499 1499 1500 1501 1502 1503 1505 1507 1508 1510 1512 1514 1517 1520 1522 1525 1528 1530 1532 1534 1536 1538 1540 1541 1543 1544 1546 1547 1548 1548 1549 1550 1551 1551 1551 1551 1551 1551 1550 1550 1549
1502 1500 1499 1498 1498 1499 1498 1498 1497 1496 1497 1499 1500 1501 1502 1504 1505 1507 1509 1512 1514 1516 1519 1522 1524 1527 1529 1531 1533 1535 1537 1539 1541 1543 1544 1545 1547 1548 1548 1549 1550 1550 1551 1550 1550 1550 1550 1549 1549
1497 1497 1496 1496 1496 1496 1496 1495 1496 1493 1495 1496 1497 1498 1499 1500 1502 1504 1506 1508 1510 1512 1515 1518 1520 1523 1526 1528 1530 1533 1535 1537 1539 1541 1542 1544 1545 1546 1547 1548 1549 1549 1550 1550 1549 1549 1549 1548 1548
1494 1496 1495 1493 1493 1493 1495 1496 1492 1489 1492 1492 1493 1494 1495 1497 1498 1499 1501 1503 1505 1508 1510 1513 1516 1519 1522 1524 1527 1530 1532 1535 1537 1539 1540 1542 1543 1545 1546 1547 1547 1548 1548 1549 1548 1548 1548 1547 1546
1493 1497 1500 1492 1490 1490 1497 1498 1486 1486 1487 1487 1487 1489 1490 1492 1493 1495 1497 1499 1501 1503 1506 1509 1512 1515 1517 1520 1524 1527 1529 1532 1534 1536 1538 1540 1542 1543 1544 1545 1546 1547 1547 1547 1547 1547 1547 1546 1545
1497 1502 1500 1494 1487 1488 1492 1492 1482 1482 1483 1483 1483 1483 1485 1486 1488 1489 1491 1493 1496 1498 1501 1504 1506 1510 1513 1517 1520 1523 1526 1529 1532 1534 1536 1538 1539 1541 1542 1543 1544 1545 1545 1546 1546 1546 1545 1545 1544
1498 1499 1496 1494 1485 1486 1489 1487 1479 1477 1479 1478 1478 1478 1479 1480 1481 1483 1485 1488 1490 1493 1496 1498 1502 1505 1509 1513 1517 1520 1523 1526 1528 1531 1533 1535 1537 1539 1540 1541 1542 1543 1544 1544 1544 1544 1543 1543 1542
1487 1490 1491 1486 1481 1484 1486 1483 1477 1473 1474 1473 1471 1472 1472 1473 1475 1477 1479 1482 1484 1487 1490 1493 1496 1500 1504 1508 1511 1514 1517 1521 1524 1527 1530 1532 1534 1536 1537 1539 1540 1541 1541 1542 1542 1542 1541 1541 1540
1485 1488 1488 1484 1479 1482 1484 1481 1473 1469 1467 1465 1464 1464 1465 1467 1468 1470 1472 1475 1477 1480 1483 1487 1491 1495 1498 1502 1506 1510 1514 1517 1521 1524 1526 1529 1531 1533 1534 1536 1537 1538 1539 1539 1540 1540 1539 1539 1538
1482 1485 1485 1485 1480 1479 1482 1480 1472 1464 1461 1459 1458 1458 1459 1460 1461 1463 1465 1468 1471 1474 1478 1481 1485 1489 1494 1498 1502 1507 1511 1515 1517 1519 1522 1525 1527 1530 1531 1533 1534 1535 1536 1537 1537 1537 1537 1537 1536
1477 1474 1478 1481 1486 1489 1485 1492 1474 1464 1459 1456 1454 1453 1453 1454 1456 1458 1460 1462 1465 1469 1473 1477 1481 1485 1489 1493 1497 1500 1503 1506 1509 1514 1518 1521 1524 1526 1528 1530 1531 1532 1533 1534 1534 1534 1534 1534 1534
1468 1468 1474 1478 1484 1489 1487 1490 1475 1463 1459 1452 1449 1448 1448 1449 1451 1453 1455 1458 1461 1465 1469 1473 1477 1481 1485 1488 1492 1496 1499 1503 1507 1511 1514 1517 1520 1522 1524 1526 1528 1529 1530 1531 1531 1531 1532 1531 1531
1463 1469 1475 1482 1487 1494 1485 1489 1476 1462 1452 1446 1444 1444 1444 1446 1447 1449 1452 1455 1458 1461 1465 1469 1472 1476 1480 1484 1487 1491 1495 1499 1502 1506 1510 1513 1516 1518 1520 1522 1524 1525 1526 1527 1528 1528 1528 1528 1528
1460 1473 1487 1490 1495 1490 1478 1480 1466 1448 1441 1439 1439 1439 1441 1442 1444 1446 1449 1452 1455 1458 1461 1464 1468 1471 1475 1479 1483 1487 1491 1494 1498 1502 1505 1508 1511 1513 1516 1518 1520 1521 1523 1524 1525 1525 1525 1525 1524
1453 1460 1476 1485 1489 1483 1474 1473 1453 1438 1434 1434 1435 1436 1438 1440 1442 1444 1446 1449 1452 1454 1457 1461 1464 1467 1471 1475 1479 1483 1487 1490 1494 1497 1501 1504 1507 1509 1512 1514 1516 1518 1519 1520 1521 1521 1521 1521 1521
1449 1453 1456 1470 1475 1477 1472 1460 1446 1434 1433 1433 1434 1435 1436 1437 1440 1442 1444 1446 1449 1451 1454 1457 1460 1464 1467 1471 1475 1479 1483 1486 1490 1493 1497 1500 1503 1506 1508 1510 1512 1514 1515 1516 1517 1517 1517 1517 1517
1435 1444 1456 1466 1477 1478 1468 1460 1449 1436 1434 1433 1433 1432 1433 1435 1438 1440 1442 1444 1447 1449 1452 1455 1457 1460 1464 1467 1471 1475 1479 1482 1486 1489 1492 1495 1499 1501 1503 1506 1508 1509 1510 1511 1512 1512 1513 1513 1512
1434 1440 1444 1456 1463 1470 1471 1455 1429 1426 1425 1427 1428 1428 1430 1432 1435 1437 1440 1442 1445 1447 1449 1452 1454 1457 1461 1464 1468 1471 1475 1479 1482 1485 1488 1491 1494 1497 1499 1501 1503 1504 1506 1507 1507 1508 1508 1508 1507
1421 1427 1436 1448 1456 1457 1460 1446 1417 1417 1417 1420 1423 1425 1427 1430 1433 1436 1438 1440 1442 1444 1446 1449 1451 1454 1457 1461 1464 1468 1471 1474 1477 1480 1484 1487 1490 1492 1495 1497 1498 1500 1501 1502 1503 1503 1503 1503 1502